FLOCK 3P-26 (41961 NORAD) Tracking and Keplerian Element Data

This shows tracking and keplerian element data for the satellite.

Feedback or suggestion? Click here.




ElementValue
Catalog41961
NameFLOCK 3P-26
Epoch Orbit5531
Epoch Day45.85495252
Epoch Year2018
RAAN111.3037
Inclination97.4653
Eccentricity0.0010171
Argument of Perigee66.1392
Mean Anonmoly294.091
Mean Motion15.23928669
Decay Rate1.49E-05
L11 41961U 17008P 18045.85495252 .00001490 00000-0 64560-4 0 9994
L22 41961 97.4653 111.3037 0010171 66.1392 294.0910 15.23928669 55310

Live tracking and technical data element details for FLOCK 3P-26 (NORAD 41961). FLOCK 3P-26 can be tracked NOW for your location showing map with azimuth and elevation plus other details from your city location.

Track the satellite on the map from your city or location and see movement details for azimuth, elevation, latitude, longitude, range, height, and movement on the map or in text.







IsCatalogInMostPopularTable: catalog: 41961, numindb: 112
Update: records affected: 1



GetName: 41961 FLOCK 3P-26

Hit Count: updated at: Mon, 12 Nov 2018 18:21:33 GMT